Regional Weather Roundup
Issued by NWS Bismarck, ND

Home | Current Version | Previous Version | Text Only | Print | Product List | Glossary On
Versions: 1 2 3 4 5 6 7 8 9 10 11 12 13 14 15 16 17 18 19 20 21 22 23 24 25 26 27 28 29 30 31 32 33 34 35 36 37 38 39 40 41 42 43 44 45 46 47 48 49 50
000
ASUS43 KBIS 290059
RWRBIS

NWR BROADCAST TEXT
NATIONAL WEATHER SERVICE BISMARCK ND
800 PM CDT THU AUG 28 2014

NOTE: "FAIR" INDICATES FEW OR NO CLOUDS BELOW 12,000 FEET WITH NO
SIGNIFICANT WEATHER AND/OR OBSTRUCTIONS TO VISIBILITY.


CITY           SKY/WX    TMP DP  RH WIND       PRES   REMARKS
WILLISTON      PTCLDY    87  49  26 W8        29.76S
MINOT          PTCLDY    79  60  52 SE8       29.77S
MINOT AFB      NOT AVBL
BISMARCK       CLOUDY    71  66  84 SE8       29.85S
DICKINSON      NOT AVBL
GARRISON         N/A     76  66  71 SE6       29.81S
HETTINGER ARPT PTCLDY    76  58  53 SE9       29.87F
JAMESTOWN      NOT AVBL
BEACH            N/A     81  55  41 NW6       29.85S
CARRINGTON     FAIR      68  68 100 S9        29.86F
HAZEN          FAIR      75  68  78 S14       29.81S
MANDAN         FAIR      72  66  83 SE6       29.86S
OAKES            N/A     64  64 100 E10       29.87S FOG
STANLEY        FAIR      77  61  57 S8        29.78S
TIOGA          FAIR      77  57  50 S10       29.80S
$$

CITY           SKY/WX    TMP DP  RH WIND       PRES   REMARKS
GRAND FORKS    CLOUDY    71  65  81 S14       29.85S
GRAND FORKS AF NOT AVBL
DEVILS LAKE    CLOUDY    72  63  73 S9        29.82S
FARGO          CLOUDY    67  64  90 SE10      29.87F
GRAFTON        MOCLDY    70  66  88 S15       29.84S
ROLLA          FAIR      73  66  78 S10       29.82S
WALHALLA         N/A     75  70  83 S8        29.80S
$$

CITY           SKY/WX    TMP DP  RH WIND       PRES   REMARKS
ABERDEEN       HVY RAIN  66  66 100 E9        29.86S FOG
MOBRIDGE       CLOUDY    68  67  96 E5        29.84F
RAPID CITY     CLOUDY    73  62  68 E5        29.92S
GLASGOW        CLEAR     83  50  31 NW9       29.81S
SIDNEY           N/A     81  55  41 CALM      29.80R
WOLF POINT     CLEAR     84  50  30 W8        29.79S
GLENDIVE       CLEAR     81  55  41 W7        29.83S
MILES CITY     CLEAR     84  45  25 W8        29.84S
BAKER          CLEAR     81  52  36 NW5       29.87F
$$

CITY           SKY/WX    TMP DP  RH WIND       PRES   REMARKS
BILLINGS       PTCLDY    85  45  24 NE3       29.90F
GREAT FALLS    SUNNY     84  31  14 W18G24    29.88S
$$



USA.gov is the U.S. government's official web portal to all federal, state and local government web resources and services.